{"data":{"norad_id":69782,"intl_designator":"2026-151V","name":"KUIPER-00627","alt_names":[],"object_type":"PAYLOAD","status":"ACTIVE","operator":null,"country":"US","launch_date":"2026-07-02","launch_site_code":"AFETR","launch_vehicle":null,"mission":null,"orbit_class":"UNKNOWN","rcs_meters":null,"size_class":null,"mass_kg":null,"dimensions":null,"purposes":[],"wikipedia_slug":null,"has_3d_model":false,"image_url":null,"decayed_at":null,"tle_current":{"epoch":"2026-09-20T04:00:03.000096Z","epoch_age_seconds":54291,"freshness":"FRESH","line1":"1 69782U 26151V   26263.16670139 -.00055671  00000+0 -66066-2 0  9990","line2":"2 69782  51.8986 223.2476 0008277  84.5667 266.0509 14.84240044  3470","mean_motion":14.84240044,"eccentricity":0.0008277,"inclination_deg":51.8986,"raan_deg":223.2476,"arg_perigee_deg":84.5667,"mean_anomaly_deg":266.0509,"bstar":-0.0066066,"rev_number":347,"period_min":97.019347094236,"perigee_km":610.18322357214,"apogee_km":621.76127202094,"semimajor_km":6994.1092477965,"source":"CELESTRAK","updated_at":"2026-09-20T09:00:25.093787Z"}}}